Time,TemperatureF,DewpointF,PressureIn,WindDirection,WindDirectionDegrees,WindSpeedMPH,WindSpeedGustMPH,Humidity,HourlyPrecipIn,Conditions,Clouds,dailyrainin,SoftwareType,DateUTC
2013-07-29 00:14:00,69.3,67.5,29.97,SE,132,0.0,0.0,94,0.00,SCT,,0.00,WeatherDisplay:10.37,2013-07-29 04:14:00,
2013-07-29 00:29:00,69.1,67.3,29.97,SE,132,0.0,0.0,94,0.00,SCT,,0.00,WeatherDisplay:10.37,2013-07-29 04:29:00,
2013-07-29 00:44:00,69.1,67.3,29.97,SE,132,0.0,0.0,94,0.00,SCT,,0.00,WeatherDisplay:10.37,2013-07-29 04:44:00,
2013-07-29 00:59:00,69.4,67.6,29.96,SE,132,0.0,0.0,94,0.01,SCT,,0.01,WeatherDisplay:10.37,2013-07-29 04:59:00,
2013-07-29 01:14:00,69.4,67.6,29.96,SE,132,0.0,0.0,94,0.00,SCT,,0.01,WeatherDisplay:10.37,2013-07-29 05:14:00,
2013-07-29 01:29:00,69.4,67.6,29.96,SE,132,0.0,0.0,94,0.00,SCT,,0.01,WeatherDisplay:10.37,2013-07-29 05:29:00,
2013-07-29 01:44:00,69.6,67.8,29.98,WSW,248,0.0,2.0,94,0.00,SCT,,0.01,WeatherDisplay:10.37,2013-07-29 05:44:00,
2013-07-29 01:59:00,69.8,68.0,29.98,WNW,284,0.0,4.0,94,0.09,RA,,0.10,WeatherDisplay:10.37,2013-07-29 05:59:00,
2013-07-29 02:14:00,69.8,68.0,29.97,WNW,284,0.0,0.0,94,0.01,RA,,0.11,WeatherDisplay:10.37,2013-07-29 06:14:00,
2013-07-29 02:29:00,69.4,67.6,29.96,WNW,284,0.0,0.0,94,0.00,SCT,,0.11,WeatherDisplay:10.37,2013-07-29 06:29:00,
2013-07-29 02:44:00,69.1,67.3,29.97,WNW,284,0.0,0.0,94,0.00,SCT,,0.11,WeatherDisplay:10.37,2013-07-29 06:44:00,
2013-07-29 02:59:00,69.1,67.3,29.97,WNW,284,0.0,0.0,94,0.00,SCT,,0.11,WeatherDisplay:10.37,2013-07-29 06:59:00,
2013-07-29 03:14:00,69.1,67.3,29.96,WNW,284,0.0,0.0,94,0.00,SCT,,0.11,WeatherDisplay:10.37,2013-07-29 07:14:00,
2013-07-29 03:29:00,68.4,66.6,29.96,WNW,284,0.0,0.0,94,0.00,SCT,,0.11,WeatherDisplay:10.37,2013-07-29 07:29:00,
2013-07-29 03:44:00,67.9,66.1,29.97,WNW,284,0.0,0.0,94,0.00,SCT,,0.11,WeatherDisplay:10.37,2013-07-29 07:44:00,
2013-07-29 03:59:00,67.6,66.1,29.97,WNW,284,0.0,0.0,95,0.00,SCT,,0.11,WeatherDisplay:10.37,2013-07-29 07:59:00,
2013-07-29 04:14:00,67.2,65.7,29.97,WNW,284,0.0,0.0,95,0.00,SCT,,0.11,WeatherDisplay:10.37,2013-07-29 08:14:00,
2013-07-29 04:29:00,66.8,65.3,29.97,WNW,284,0.0,0.0,95,0.00,SCT,,0.11,WeatherDisplay:10.37,2013-07-29 08:29:00,
2013-07-29 04:44:00,66.5,65.1,29.97,WNW,284,0.0,0.0,95,0.00,SCT,,0.11,WeatherDisplay:10.37,2013-07-29 08:44:00,
2013-07-29 04:59:00,66.3,64.8,29.98,WNW,284,0.0,0.0,95,0.00,SCT,,0.11,WeatherDisplay:10.37,2013-07-29 08:59:00,
2013-07-29 05:14:00,66.1,64.6,29.98,WNW,284,0.0,0.0,95,0.00,SCT,,0.11,WeatherDisplay:10.37,2013-07-29 09:14:00,
2013-07-29 05:29:00,66.0,64.5,29.99,WNW,284,0.0,0.0,95,0.00,SCT,,0.11,WeatherDisplay:10.37,2013-07-29 09:29:00,
2013-07-29 05:44:00,65.6,64.1,30.00,WNW,284,0.0,0.0,95,0.00,SCT,,0.11,WeatherDisplay:10.37,2013-07-29 09:44:00,
2013-07-29 05:59:00,65.5,64.0,30.00,WNW,284,0.0,0.0,95,0.00,SCT,,0.11,WeatherDisplay:10.37,2013-07-29 09:59:00,
2013-07-29 06:14:00,65.5,64.0,30.01,WNW,284,0.0,0.0,95,0.00,SCT,,0.11,WeatherDisplay:10.37,2013-07-29 10:14:00,
2013-07-29 06:29:00,65.5,64.0,30.01,WNW,284,0.0,0.0,95,0.00,SCT,,0.11,WeatherDisplay:10.37,2013-07-29 10:29:00,
2013-07-29 06:59:00,65.5,64.0,30.02,WNW,284,0.0,0.0,95,0.00,SCT,,0.11,WeatherDisplay:10.37,2013-07-29 10:59:00,
2013-07-29 07:14:00,65.5,64.0,30.03,WNW,284,0.0,0.0,95,0.00,SCT,,0.11,WeatherDisplay:10.37,2013-07-29 11:14:00,
2013-07-29 07:29:00,65.5,64.0,30.03,WNW,284,0.0,0.0,95,0.00,SCT,,0.11,WeatherDisplay:10.37,2013-07-29 11:29:00,
2013-07-29 07:44:00,65.6,64.1,30.04,WNW,284,0.0,0.0,95,0.00,SCT,,0.11,WeatherDisplay:10.37,2013-07-29 11:44:00,
2013-07-29 07:59:00,65.8,64.3,30.05,WNW,284,0.0,0.0,95,0.00,SCT,,0.11,WeatherDisplay:10.37,2013-07-29 11:59:00,
2013-07-29 08:14:00,66.1,64.6,30.05,WNW,284,0.0,0.0,95,0.00,SCT,,0.11,WeatherDisplay:10.37,2013-07-29 12:14:00,
2013-07-29 08:29:00,66.3,64.8,30.06,WNW,284,0.0,0.0,95,0.00,SCT,,0.11,WeatherDisplay:10.37,2013-07-29 12:29:00,
2013-07-29 08:44:00,66.4,64.9,30.06,WNW,284,0.0,0.0,95,0.00,SCT,,0.11,WeatherDisplay:10.37,2013-07-29 12:44:00,
2013-07-29 08:59:00,66.6,65.1,30.06,WNW,284,0.0,0.0,95,0.00,SCT,,0.11,WeatherDisplay:10.37,2013-07-29 12:59:00,
2013-07-29 09:14:00,66.8,65.3,30.06,WNW,284,0.0,0.0,95,0.00,SCT,,0.11,WeatherDisplay:10.37,2013-07-29 13:14:00,
2013-07-29 09:29:00,66.6,65.1,30.07,WNW,284,0.0,1.0,95,0.00,SCT,,0.11,WeatherDisplay:10.37,2013-07-29 13:29:00,
2013-07-29 09:44:00,66.3,64.8,30.07,WNW,284,0.0,1.0,95,0.00,SCT,,0.11,WeatherDisplay:10.37,2013-07-29 13:44:00,
2013-07-29 09:59:00,66.4,64.9,30.08,SW,236,0.0,3.0,95,0.00,SCT,,0.11,WeatherDisplay:10.37,2013-07-29 13:59:00,
2013-07-29 10:14:00,66.6,65.1,30.09,SW,236,0.0,1.0,95,0.00,SCT,,0.11,WeatherDisplay:10.37,2013-07-29 14:14:00,
2013-07-29 10:29:00,67.3,65.5,30.09,SW,236,0.0,1.0,94,0.00,SCT,,0.11,WeatherDisplay:10.37,2013-07-29 14:29:00,
2013-07-29 10:44:00,70.8,62.5,30.09,WSW,240,0.0,3.0,75,0.00,SCT,,0.11,WeatherDisplay:10.37,2013-07-29 14:44:00,
2013-07-29 11:44:00,76.1,62.6,30.09,WSW,255,0.0,1.0,63,0.00,SCT,,0.11,WeatherDisplay:10.37,2013-07-29 15:44:00,
2013-07-29 12:29:00,77.6,61.2,30.08,SW,220,0.0,2.0,57,0.00,SCT,,0.11,WeatherDisplay:10.37,2013-07-29 16:29:00,
2013-07-29 12:44:00,77.7,60.8,30.08,WSW,258,1.0,3.0,56,0.00,SCT,,0.11,WeatherDisplay:10.37,2013-07-29 16:44:00,
2013-07-29 12:59:00,78.8,64.2,30.08,WNW,288,0.0,2.0,61,0.00,SCT,,0.11,WeatherDisplay:10.37,2013-07-29 16:59:00,
2013-07-29 13:29:00,79.2,63.1,30.07,West,271,0.0,3.0,58,0.00,SCT,,0.11,WeatherDisplay:10.37,2013-07-29 17:29:00,
2013-07-29 13:44:00,79.8,61.7,30.07,West,260,0.0,2.0,54,0.00,SCT,,0.11,WeatherDisplay:10.37,2013-07-29 17:44:00,
2013-07-29 13:59:00,80.1,60.9,30.07,SSW,193,0.0,6.0,52,0.00,SCT,,0.11,WeatherDisplay:10.37,2013-07-29 17:59:00,
2013-07-29 14:14:00,81.2,60.8,30.07,NNW,331,0.0,6.0,50,0.00,SCT,,0.11,WeatherDisplay:10.37,2013-07-29 18:14:00,
2013-07-29 14:29:00,80.8,63.1,30.06,NW,310,0.0,3.0,55,0.00,SCT,,0.11,WeatherDisplay:10.37,2013-07-29 18:29:00,
2013-07-29 14:59:00,81.1,62.9,30.06,WSW,248,1.0,3.0,54,0.00,SCT,,0.11,WeatherDisplay:10.37,2013-07-29 18:59:00,
2013-07-29 15:14:00,81.7,61.3,30.05,WSW,242,0.0,2.0,50,0.00,SCT,,0.11,WeatherDisplay:10.37,2013-07-29 19:14:00,
2013-07-29 15:59:00,80.7,61.4,30.04,WNW,287,0.0,5.0,52,0.00,SCT,,0.11,WeatherDisplay:10.37,2013-07-29 19:59:00,
2013-07-29 16:14:00,80.3,64.1,30.03,NW,305,0.0,4.0,58,0.00,SCT,,0.11,WeatherDisplay:10.37,2013-07-29 20:14:00,
2013-07-29 16:29:00,80.0,61.9,30.05,NW,306,1.0,5.0,54,0.00,SCT,,0.11,WeatherDisplay:10.37,2013-07-29 20:29:00,
2013-07-29 16:44:00,81.4,62.1,30.05,NW,304,0.0,6.0,52,0.00,SCT,,0.11,WeatherDisplay:10.37,2013-07-29 20:44:00,
2013-07-29 16:59:00,81.2,62.4,30.05,WNW,303,0.0,3.0,53,0.00,SCT,,0.11,WeatherDisplay:10.37,2013-07-29 20:59:00,
2013-07-29 17:14:00,82.2,60.0,30.05,WNW,291,1.0,4.0,47,0.00,SCT,,0.11,WeatherDisplay:10.37,2013-07-29 21:14:00,
2013-07-29 17:29:00,82.0,61.5,30.06,WNW,300,0.0,3.0,50,0.00,SCT,,0.11,WeatherDisplay:10.37,2013-07-29 21:29:00,
2013-07-29 18:29:00,81.0,58.3,30.06,West,275,0.0,2.0,46,0.00,SCT,,0.11,WeatherDisplay:10.37,2013-07-29 22:29:00,
2013-07-29 18:44:00,79.0,64.9,30.06,West,275,0.0,0.0,62,0.00,SCT,,0.11,WeatherDisplay:10.37,2013-07-29 22:44:00,
2013-07-29 18:59:00,78.8,60.7,30.07,West,280,0.0,3.0,54,0.00,SCT,,0.11,WeatherDisplay:10.37,2013-07-29 22:59:00,
2013-07-29 19:14:00,77.7,65.4,30.06,West,280,0.0,0.0,66,0.00,SCT,,0.11,WeatherDisplay:10.37,2013-07-29 23:14:00,
2013-07-29 19:29:00,76.5,65.6,30.07,West,280,0.0,0.0,69,0.00,SCT,,0.11,WeatherDisplay:10.37,2013-07-29 23:29:00,
2013-07-29 19:44:00,75.4,64.5,30.07,West,280,0.0,0.0,69,0.00,SCT,,0.11,WeatherDisplay:10.37,2013-07-29 23:44:00,
2013-07-29 19:59:00,74.2,65.0,30.08,West,280,0.0,0.0,73,0.00,SCT,,0.11,WeatherDisplay:10.37,2013-07-29 23:59:00,
2013-07-29 20:14:00,73.3,64.9,30.09,West,280,0.0,0.0,75,0.00,SCT,,0.11,WeatherDisplay:10.37,2013-07-30 00:14:00,
2013-07-29 20:29:00,72.3,63.5,30.10,West,280,0.0,0.0,74,0.00,SCT,,0.11,WeatherDisplay:10.37,2013-07-30 00:29:00,
2013-07-29 20:44:00,71.6,62.9,30.11,West,280,0.0,0.0,74,0.00,SCT,,0.11,WeatherDisplay:10.37,2013-07-30 00:44:00,
2013-07-29 20:59:00,70.8,62.5,30.12,West,280,0.0,0.0,75,0.00,SCT,,0.11,WeatherDisplay:10.37,2013-07-30 00:59:00,
2013-07-29 21:14:00,70.3,62.7,30.12,West,280,0.0,0.0,77,0.00,SCT,,0.11,WeatherDisplay:10.37,2013-07-30 01:14:00,
2013-07-29 21:29:00,69.8,62.6,30.12,West,280,0.0,0.0,78,0.00,SCT,,0.11,WeatherDisplay:10.37,2013-07-30 01:29:00,
2013-07-29 22:14:00,69.1,64.1,30.12,West,280,0.0,0.0,84,0.00,SCT,,0.11,WeatherDisplay:10.37,2013-07-30 02:14:00,
2013-07-29 22:29:00,68.8,63.8,30.12,West,280,0.0,0.0,84,0.00,SCT,,0.11,WeatherDisplay:10.37,2013-07-30 02:29:00,
2013-07-29 22:44:00,68.3,64.0,30.13,West,280,0.0,0.0,86,0.00,SCT,,0.11,WeatherDisplay:10.37,2013-07-30 02:44:00,
2013-07-29 22:59:00,67.9,63.9,30.13,West,280,0.0,0.0,87,0.00,SCT,,0.11,WeatherDisplay:10.37,2013-07-30 02:59:00,
2013-07-29 23:14:00,67.6,63.6,30.13,West,280,0.0,0.0,87,0.00,SCT,,0.11,WeatherDisplay:10.37,2013-07-30 03:14:00,
2013-07-29 23:29:00,67.3,63.6,30.13,West,280,0.0,0.0,88,0.00,SCT,,0.11,WeatherDisplay:10.37,2013-07-30 03:29:00,
2013-07-29 23:44:00,66.9,63.5,30.12,West,280,0.0,0.0,89,0.00,SCT,,0.11,WeatherDisplay:10.37,2013-07-30 03:44:00,
2013-07-29 23:59:00,66.9,63.6,30.12,West,280,0.0,0.0,89,0.00,RA,,0.00,WeatherDisplay:10.37,2013-07-30 03:59:00,